{"data":{"norad_id":32382,"intl_designator":"2007-061A","name":"RADARSAT-2","alt_names":[],"object_type":"PAYLOAD","status":"ACTIVE","operator":null,"country":"CA","launch_date":"2007-12-14","launch_site_code":"TYMSC","launch_vehicle":null,"mission":null,"orbit_class":"UNKNOWN","rcs_meters":8.381,"size_class":null,"mass_kg":null,"dimensions":null,"purposes":["earth_obs"],"wikipedia_slug":null,"has_3d_model":false,"image_url":null,"decayed_at":null,"tle_current":{"epoch":"2026-09-19T23:43:09.736896Z","epoch_age_seconds":58672,"freshness":"FRESH","line1":"1 32382U 07061A   26262.98830714  .00000198  00000+0  93623-4 0  9994","line2":"2 32382  98.5828 268.5824 0001250  81.2260 278.9064 14.29983689979507","mean_motion":14.29983689,"eccentricity":0.000125,"inclination_deg":98.5828,"raan_deg":268.5824,"arg_perigee_deg":81.226,"mean_anomaly_deg":278.9064,"bstar":9.3623e-5,"rev_number":97950,"period_min":100.7004493182,"perigee_km":790.8891073778,"apogee_km":792.68158796472,"semimajor_km":7169.9223476713,"source":"CELESTRAK","updated_at":"2026-09-20T09:00:33.887643Z"}}}